Weather History for 08306 - January, 2013

Change the Weather History Date:

Sunday, January 20, 2013

  Actual Average Record
Temperature  
Mean Temperature 48 °F -  
Max Temperature 56 °F 57 °F - ()
Min Temperature 41 °F 39 °F - ()
Degree Days  
Heating Degree Days 16    
Moisture  
Dew Point 43 °F    
Average Humidity 72    
Maximum Humidity 93    
Minimum Humidity 44    
Precipitation  
Precipitation 0.00 in 0.05 in - ()
Sea Level Pressure  
Sea Level Pressure 29.36 in    
Wind  
Wind Speed 12 mph ()    
Max Wind Speed 22 mph    
Max Gust Speed 31 mph    
Visibility 6.7 miles    
Events Rain    
T = Trace of Precipitation, MM = Missing Value Source: Averaged Metar Reports

Daily Weather History Graph

Daily Weather History Graph

Search for Another Location

Airport or City:

Trip Planner

Search our weather history database for the weather conditions in past years. The results will help you decide how hot, cold, wet, or windy it might be!

Date:

Astronomy

Jan. 20, 2013 Rise Set
Actual Time 8:05 AM CET 5:55 PM CET
Civil Twilight 7:36 AM CET 6:24 PM CET
Nautical Twilight 7:03 AM CET 6:57 PM CET
Astronomical Twilight 6:31 AM CET 7:29 PM CET
Moon 12:46 PM CET (1/20) 2:23 AM CET (1/20)
Length of Visible Light 10h 48m
Length of Day
9h 49m
Waxing Gibbous, 64% of the Moon is Illuminated
Jan 20
Waxing Gibbous
Jan 27
Full
Feb 3
Last Quarter
Feb 10
New
Feb 17
First Quarter

Hourly Weather History & Observations

Time (CET) Temp. Windchill Dew Point Humidity Pressure Visibility Wind Dir Wind Speed Gust Speed Precip Events Conditions
12:00 AM 57.2 °F - 50.0 °F 77% 29.15 in 6.2 mi SW 21.9 mph - N/A   Mostly Cloudy
12:30 AM 57.2 °F - 50.0 °F 77% 29.12 in 6.2 mi SW 21.9 mph - N/A   Mostly Cloudy
1:00 AM 56 °F - 48 °F 66% 29.13 in 9 mi SW 21.9 mph - -   Mostly Cloudy
1:00 AM 57.2 °F - 50.0 °F 77% 29.12 in 6.2 mi SW 19.6 mph 31.1 mph N/A   Mostly Cloudy
1:30 AM 57.2 °F - 50.0 °F 77% 29.12 in 6.2 mi SW 18.4 mph - N/A   Mostly Cloudy
2:00 AM 57.2 °F - 50.0 °F 77% 29.12 in 6.2 mi SW 17.3 mph - N/A Rain Light Rain
2:30 AM 57.2 °F - 50.0 °F 77% 29.12 in 6.2 mi WSW 12.7 mph - N/A   Mostly Cloudy
3:00 AM 55.4 °F - 48.2 °F 77% 29.12 in 6.2 mi WSW 8.1 mph - N/A   Mostly Cloudy
3:30 AM 55.4 °F - 48.2 °F 77% 29.12 in 6.2 mi WSW 5.8 mph - N/A   Scattered Clouds
4:00 AM 51.8 °F - 46.4 °F 82% 29.12 in 6.2 mi Variable 2.3 mph - N/A   Scattered Clouds
4:07 AM 50.0 °F - 44.6 °F 82% 29.12 in 6.2 mi Calm Calm - N/A Rain Rain
4:30 AM 51.8 °F - 46.4 °F 82% 29.12 in 6.2 mi Variable 2.3 mph - N/A   Mostly Cloudy
5:00 AM 50.0 °F - 46.4 °F 87% 29.12 in 6.2 mi ENE 2.3 mph - N/A   Scattered Clouds
5:30 AM 48.2 °F - 44.6 °F 87% 29.15 in 6.2 mi Calm Calm - N/A   Scattered Clouds
6:00 AM 46.4 °F 45.2 °F 44.6 °F 93% 29.15 in 6.2 mi SSE 3.5 mph - N/A   Scattered Clouds
6:30 AM 51.8 °F - 48.2 °F 88% 29.18 in 6.2 mi WNW 5.8 mph - N/A Rain Light Rain
7:00 AM 51 °F - 46 °F 78% 29.21 in 7 mi WNW 9.2 mph - -   Partly Cloudy
7:00 AM 51.8 °F - 48.2 °F 88% 29.18 in 6.2 mi WNW 12.7 mph - N/A Rain Light Rain
7:30 AM 51.8 °F - 46.4 °F 82% 29.21 in 6.2 mi NW 13.8 mph - N/A   Scattered Clouds
8:00 AM 51.8 °F - 46.4 °F 82% 29.24 in 6.2 mi NW 17.3 mph - N/A   Mostly Cloudy
8:30 AM 51.8 °F - 46.4 °F 82% 29.27 in 6.2 mi NW 13.8 mph - N/A   Mostly Cloudy
9:00 AM 51.8 °F - 44.6 °F 76% 29.30 in 6.2 mi NW 15.0 mph - N/A   Mostly Cloudy
9:30 AM 51.8 °F - 44.6 °F 76% 29.30 in 6.2 mi NW 12.7 mph - N/A   Mostly Cloudy
10:00 AM 51.8 °F - 44.6 °F 76% 29.33 in 6.2 mi NW 13.8 mph - N/A   Mostly Cloudy
10:30 AM 53.6 °F - 42.8 °F 67% 29.36 in 6.2 mi NW 16.1 mph - N/A   Mostly Cloudy
11:00 AM 53.6 °F - 44.6 °F 72% 29.36 in 6.2 mi NW 12.7 mph - N/A   Mostly Cloudy
11:30 AM 53.6 °F - 42.8 °F 67% 29.39 in 6.2 mi NW 16.1 mph - N/A   Mostly Cloudy
12:00 PM 53.6 °F - 42.8 °F 67% 29.39 in 6.2 mi WNW 19.6 mph - N/A   Mostly Cloudy
12:30 PM 53.6 °F - 42.8 °F 67% 29.42 in 6.2 mi NW 16.1 mph - N/A   Mostly Cloudy
1:00 PM 53 °F - 40 °F 49% 29.42 in 16 mi WNW 17.3 mph - -   Partly Cloudy
1:00 PM 53.6 °F - 42.8 °F 67% 29.42 in 6.2 mi NW 15.0 mph 26.5 mph N/A   Mostly Cloudy
1:30 PM 53.6 °F - 42.8 °F 67% 29.42 in 6.2 mi NW 18.4 mph - N/A   Mostly Cloudy
2:00 PM 53.6 °F - 42.8 °F 67% 29.44 in 6.2 mi WNW 17.3 mph - N/A   Mostly Cloudy
2:30 PM 53.6 °F - 42.8 °F 67% 29.44 in 6.2 mi WNW 12.7 mph - N/A   Mostly Cloudy
3:00 PM 55.4 °F - 42.8 °F 63% 29.47 in 6.2 mi WNW 13.8 mph - N/A   Mostly Cloudy
3:30 PM 55.4 °F - 42.8 °F 63% 29.47 in 6.2 mi NW 13.8 mph 25.3 mph N/A   Mostly Cloudy
4:00 PM 55.4 °F - 42.8 °F 63% 29.50 in 6.2 mi NW 16.1 mph - N/A   Scattered Clouds
4:30 PM 55.4 °F - 41.0 °F 58% 29.50 in 6.2 mi NW 15.0 mph - N/A   Scattered Clouds
5:00 PM 55.4 °F - 41.0 °F 58% 29.53 in 6.2 mi NW 15.0 mph - N/A   Scattered Clouds
5:30 PM 55.4 °F - 41.0 °F 58% 29.53 in 6.2 mi NW 9.2 mph - N/A   Scattered Clouds
6:00 PM 53.6 °F - 39.2 °F 58% 29.53 in 6.2 mi NW 20.7 mph - N/A   Scattered Clouds
6:30 PM 53.6 °F - 39.2 °F 58% 29.56 in 6.2 mi WNW 12.7 mph - N/A   Scattered Clouds
7:00 PM 52 °F - 36 °F 44% 29.60 in 17 mi West 6.9 mph - -   Scattered Clouds
7:00 PM 53.6 °F - 39.2 °F 58% 29.59 in 6.2 mi WNW 8.1 mph - N/A   Scattered Clouds
7:30 PM 53.6 °F - 37.4 °F 54% 29.59 in 6.2 mi WNW 9.2 mph 20.7 mph N/A   Partly Cloudy
8:00 PM 51.8 °F - 37.4 °F 58% 29.59 in 6.2 mi WNW 8.1 mph - N/A   Partly Cloudy
8:30 PM 51.8 °F - 37.4 °F 58% 29.59 in 6.2 mi West 3.5 mph - N/A   Partly Cloudy
9:00 PM 50.0 °F - 39.2 °F 66% 29.62 in 6.2 mi West 4.6 mph - N/A   Partly Cloudy
9:30 PM 50.0 °F - 39.2 °F 66% 29.62 in 6.2 mi South 3.5 mph - N/A   Partly Cloudy
10:00 PM 42.8 °F - 37.4 °F 81% 29.62 in 6.2 mi South 1.2 mph - N/A   Partly Cloudy
10:30 PM 41.0 °F - 37.4 °F 87% 29.62 in 6.2 mi Variable 1.2 mph - N/A   Partly Cloudy
11:00 PM 42.8 °F - 37.4 °F 81% 29.62 in 6.2 mi Calm Calm - N/A   Partly Cloudy
11:30 PM 41.0 °F - 37.4 °F 87% 29.59 in 6.2 mi NE 2.3 mph - N/A   Partly Cloudy